Wetbulb
62.71 62.81 62.90 62.81 62.81 62.86 62.94 62.93 62.40 62.24 62.23 62.21 62.00 62.04 62.08 62.16 61.94 61.87 61.91 61.79 61.45 61.33 61.34 61.45 61.51 61.40 61.26 61.50 61.57 61.53 61.40 61.32 61.28 61.06 60.84 60.66 60.43 60.30 60.20 60.25 60.43 60.48 60.54 60.41 60.37 60.28 60.33 60.29 60.16 59.89 59.61 59.33 59.29 59.24 59.06 58.81 58.31 58.04 57.81 57.53 57.40 57.36 57.31 57.08 56.95 57.08 57.31 57.45 57.54
62.63 62.81 62.77 62.36 62.32 62.63 62.85 62.81 62.64 62.46 62.38 62.38 62.04 61.91 61.72 61.64 61.29 61.15 61.15 61.14 61.41 61.55 61.59 61.68 61.41 61.37 61.40 61.55 61.60 61.60 61.51 61.37 61.28 61.15 61.07 61.03 61.02 60.97 60.83 60.57 60.44 60.36 60.31 60.17 60.13 60.15 60.06 60.07 59.84 59.53 59.26 59.02 58.99 58.90 58.76 58.62 58.31 57.90 57.59 57.40 57.45 57.54 57.54 57.27 57.17 57.30 57.48 57.53 57.58
63.06 63.14 63.18 62.87 62.75 62.83 62.82 62.69 62.62 62.40 62.16 62.08 62.06 61.82 61.60 61.49 61.27 61.09 61.02 61.06 61.20 61.24 61.20 61.06 61.06 61.03 61.06 61.13 61.22 61.32 61.37 61.33 61.37 61.34 61.40 61.45 61.22 61.08 60.98 60.89 60.63 60.36 60.18 60.13 60.10 59.96 59.83 59.79 59.44 59.08 58.81 58.62 58.53 58.44 58.35 58.35 58.17 57.91 57.59 57.45 57.54 57.59 57.59 57.50 57.54 57.63 57.68 57.59 57.40
60.66 61.26 61.65 61.86 61.61 61.83 62.09 62.17 61.97 61.92 61.93 61.90 61.79 61.67 61.60 61.51 61.49 61.36 61.18 60.96 60.91 60.92 60.88 60.88 61.16 61.14 60.86 60.77 60.74 60.94 61.19 61.21 61.55 61.69 61.70 61.58 61.36 61.18 61.09 61.04 60.64 60.41 60.31 60.13 60.04 59.86 59.73 59.52 59.21 58.81 58.53 58.44 58.31 58.17 58.13 58.08 58.09 57.91 57.64 57.59 57.45 57.32 57.19 57.00 57.18 57.23 57.18 57.00 56.91
54.48 55.13 55.87 56.48 57.05 57.74 58.41 59.20 59.55 60.10 60.60 60.88 61.02 61.18 61.26 61.35 61.39 61.28 61.13 60.91 60.79 60.73 60.82 60.93 60.95 60.76 60.49 60.33 60.26 60.40 60.67 61.10 61.01 61.33 61.54 61.18 60.96 60.91 60.91 60.91 60.74 60.51 60.28 60.13 59.91 59.73 59.55 59.33 59.03 58.76 58.53 58.49 58.30 58.21 58.08 58.08 57.86 57.69 57.45 57.27 56.92 56.65 56.38 56.02 56.11 56.20 56.15 55.93 56.06
51.63 51.88 52.06 52.23 52.62 53.05 53.57 54.20 54.65 55.27 56.05 56.85 57.25 57.66 58.06 58.81 59.26 59.53 59.62 59.64 59.57 59.72 59.97 59.97 59.85 59.67 59.64 59.82 59.83 59.85 59.92 60.00 59.99 60.38 60.76 60.81 60.64 60.60 60.51 60.70 60.64 60.51 60.28 60.15 59.91 59.73 59.51 59.34 58.94 58.71 58.62 58.57 58.52 58.39 58.21 58.12 57.73 57.37 57.01 56.61 56.29 56.02 55.75 55.39 55.30 55.21 55.12 55.03 55.03
51.12 51.44 51.54 51.80 52.03 52.30 52.53 52.98 53.47 54.13 54.71 55.19 55.29 55.55 55.89 56.26 56.51 56.79 57.02 57.26 57.48 57.84 58.24 58.39 58.65 58.91 59.16 59.24 59.12 59.12 59.22 59.23 59.28 59.20 59.26 59.68 60.04 60.18 60.28 60.42 60.46 60.33 60.20 59.93 59.74 59.61 59.52 59.39 58.99 58.62 58.35 58.17 58.17 58.21 58.25 58.08 57.59 57.05 56.56 56.02 55.80 55.61 55.52 55.29 55.12 54.89 54.71 54.57 54.43
50.29 50.60 50.92 51.24 51.46 51.60 51.69 51.93 52.23 52.63 53.09 53.59 53.85 54.27 54.77 55.07 55.41 55.75 56.06 56.37 56.57 56.85 57.03 57.21 57.35 57.58 57.94 58.18 58.35 58.33 58.31 58.24 58.31 58.15 58.08 58.41 58.77 59.27 59.77 60.09 60.19 60.10 59.96 59.83 59.66 59.48 59.43 59.44 58.94 58.53 58.13 57.72 57.36 57.36 57.63 57.91 57.32 56.73 56.14 55.70 55.47 55.29 55.25 55.25 55.07 54.84 54.57 54.20 54.11
49.20 49.70 50.15 50.78 51.05 51.21 51.40 51.67 51.73 51.72 51.73 51.81 52.24 52.66 53.22 53.78 54.11 54.35 54.57 54.85 55.36 55.80 56.03 56.09 56.02 55.99 56.08 56.41 56.78 57.06 57.21 57.17 57.26 57.47 57.60 57.93 58.17 58.63 59.08 59.57 59.62 59.68 59.69 59.61 59.48 59.33 59.21 59.08 58.58 58.13 57.68 57.13 56.68 56.64 56.91 57.36 56.96 56.42 55.87 55.55 55.06 54.79 54.66 54.84 54.66 54.52 54.25 54.02 53.70
48.89 49.30 49.67 50.02 50.30 50.62 50.86 51.05 51.16 51.13 51.03 50.86 51.18 51.49 52.01 52.78 52.92 52.99 53.26 53.71 54.13 54.50 54.82 54.93 55.04 55.11 55.11 55.09 55.27 55.50 55.82 56.21 56.40 56.58 56.75 57.33 57.64 57.97 58.24 58.74 59.02 59.12 59.14 59.15 59.12 59.03 58.81 58.53 58.09 57.59 57.18 56.91 56.50 56.32 56.50 56.77 56.50 56.05 55.60 55.37 54.96 54.47 54.11 54.11 53.84 53.74 53.65 53.65 53.24
49.10 49.24 49.34 49.41 49.70 49.92 50.00 49.92 49.99 50.09 50.14 50.09 50.28 50.44 50.72 51.33 51.56 51.91 52.26 52.57 52.89 53.19 53.48 53.92 54.05 54.22 54.29 54.36 54.49 54.59 54.80 55.20 55.70 56.11 56.37 56.48 56.95 57.28 57.42 57.61 58.19 58.46 58.56 58.63 58.65 58.53 58.26 58.04 57.45 57.00 56.64 56.32 56.05 55.95 56.00 56.04 55.91 55.64 55.23 54.96 54.60 54.06 53.61 53.29 53.29 53.24 53.11 53.15 52.56
49.11 49.13 49.11 48.93 49.03 48.97 48.97 48.91 48.96 49.05 49.09 49.09 49.20 49.27 49.46 49.76 50.21 50.75 51.14 51.33 51.36 51.52 51.81 52.35 52.65 52.86 53.15 53.49 53.74 53.87 54.12 54.27 54.59 55.04 55.48 55.75 55.92 56.33 56.77 56.97 57.28 57.51 57.83 58.15 58.13 57.98 57.68 57.36 56.95 56.55 56.23 55.82 55.78 55.64 55.55 55.37 55.28 55.10 54.78 54.46 54.10 53.69 53.33 53.06 52.96 53.05 53.05 52.87 52.33
48.74 48.80 48.81 48.66 48.56 48.47 48.29 48.16 48.18 48.25 48.27 48.31 48.34 48.49 48.66 48.87 49.37 49.85 50.09 49.99 50.17 50.27 50.53 50.96 51.39 51.70 51.91 52.23 52.55 52.79 53.10 53.34 53.70 54.12 54.42 54.74 55.09 55.48 55.72 56.18 56.39 56.60 56.88 57.33 57.59 57.43 57.17 56.82 56.50 56.18 55.86 55.59 55.55 55.37 55.14 54.87 54.69 54.51 54.33 54.06 53.79 53.51 53.24 52.82 52.73 52.64 52.50 52.32 52.00
48.46 48.51 48.52 48.58 48.44 48.23 47.97 47.76 47.78 47.88 47.87 47.88 47.91 48.09 48.34 48.37 48.88 49.20 49.27 49.01 49.37 49.65 49.82 50.25 50.75 50.89 50.99 51.16 51.47 51.77 52.00 52.37 52.77 53.11 53.48 53.97 54.22 54.43 54.66 55.02 55.43 55.83 56.34 57.04 57.16 57.03 56.80 56.45 56.18 55.90 55.72 55.49 55.31 55.18 54.95 54.68 54.37 54.23 54.05 53.82 53.51 53.37 53.14 52.96 52.68 52.28 51.92 51.52 51.47
48.09 48.06 48.11 48.19 48.13 48.01 47.86 47.66 47.72 47.80 47.72 47.61 47.84 48.07 48.22 48.20 48.66 48.87 48.87 48.54 48.73 49.01 49.33 49.69 50.07 50.32 50.41 50.52 50.78 51.08 51.36 51.67 51.94 52.29 52.59 53.01 53.35 53.60 53.85 54.06 54.36 54.79 55.37 56.14 56.60 56.66 56.61 56.29 55.97 55.84 55.65 55.47 55.33 55.20 54.98 54.63 54.35 54.17 54.03 53.86 53.59 53.41 53.23 53.05 52.73 52.28 51.65 51.07 50.93
47.54 47.43 47.43 47.59 47.63 47.68 47.65 47.51 47.71 47.63 47.56 47.44 47.68 47.88 48.05 48.02 48.43 48.68 48.72 48.51 48.62 48.78 48.82 48.84 49.28 49.54 49.86 50.20 50.43 50.61 50.85 51.09 51.25 51.37 51.64 51.98 52.26 52.62 52.88 53.25 53.56 53.83 54.19 54.71 55.47 55.89 56.07 56.15 55.95 55.78 55.48 55.26 55.16 55.07 54.99 54.69 54.42 54.19 53.96 53.78 53.70 53.43 53.21 52.90 52.59 52.24 51.61 51.07 50.71
46.92 46.68 46.52 46.54 46.68 46.86 47.04 47.15 47.19 47.24 47.12 47.05 47.14 47.52 47.73 47.95 48.27 48.49 48.67 48.58 48.65 48.59 48.49 48.44 48.78 48.93 49.17 49.50 49.74 49.93 50.12 50.39 50.55 50.72 50.94 51.09 51.29 51.65 51.96 52.35 52.82 53.10 53.42 53.73 54.31 54.87 55.29 55.57 55.58 55.36 55.21 54.91 54.82 54.73 54.70 54.53 54.36 54.09 53.82 53.55 53.41 53.23 53.06 52.76 52.49 52.05 51.61 51.02 50.57
45.99 45.87 45.67 45.52 45.63 45.78 46.05 46.32 46.41 46.41 46.42 46.35 46.56 46.83 47.09 47.47 47.84 48.10 48.27 48.36 48.27 48.13 48.17 48.23 48.35 48.34 48.38 48.41 48.65 48.94 49.23 49.46 49.68 50.06 50.33 50.57 50.77 50.94 51.15 51.49 51.98 52.33 52.76 53.15 53.58 53.98 54.48 54.91 54.97 54.90 54.64 54.44 54.32 54.14 54.11 54.08 53.91 53.79 53.52 53.24 53.02 52.84 52.75 52.49 52.18 51.78 51.38 50.75 50.30
44.95 44.90 44.82 44.70 44.69 44.87 45.18 45.61 45.82 45.79 45.75 45.72 45.98 46.20 46.42 46.69 47.07 47.35 47.59 47.64 47.85 47.73 47.68 47.83 47.92 47.92 47.88 47.75 47.91 48.24 48.58 48.62 48.79 49.13 49.50 49.94 50.15 50.42 50.69 50.91 51.24 51.64 52.00 52.45 52.99 53.38 53.75 54.32 54.47 54.45 54.11 53.85 53.70 53.54 53.45 53.41 53.43 53.21 52.98 52.71 52.49 52.31 52.13 51.91 51.64 51.29 50.89 50.17 49.71
43.97 43.96 43.99 44.03 44.13 44.22 44.44 44.66 44.87 45.04 45.16 45.42 45.39 45.53 45.74 46.01 46.30 46.55 46.75 46.99 47.42 47.38 47.38 47.42 47.50 47.50 47.47 47.35 47.44 47.56 47.86 48.20 48.20 48.41 48.65 49.04 49.35 49.69 50.08 50.46 50.68 51.04 51.34 51.78 52.30 52.80 53.23 53.81 54.07 53.98 53.68 53.39 53.12 52.87 52.79 52.80 52.63 52.49 52.27 52.19 51.96 51.73 51.64 51.46 51.24 50.88 50.43 49.85 49.26
43.29 43.37 43.41 43.57 43.61 43.74 43.86 43.87 44.00 44.13 44.33 44.63 44.72 44.89 45.19 45.44 45.61 45.78 46.03 46.48 46.82 46.95 46.96 47.05 47.09 47.18 47.18 47.15 47.24 47.28 47.58 48.05 48.00 48.08 48.33 48.59 48.73 49.03 49.46 49.89 50.15 50.59 50.91 51.24 51.75 52.28 52.92 53.54 53.74 53.65 53.48 53.13 52.75 52.46 52.30 52.26 52.09 51.87 51.74 51.70 51.56 51.38 51.24 51.19 50.96 50.69 50.29 49.79 49.30
42.76 42.84 42.96 43.09 43.21 43.33 43.42 43.46 43.54 43.50 43.55 43.67 43.97 44.26 44.55 44.88 44.97 45.18 45.48 45.86 45.90 46.08 46.21 46.35 46.52 46.74 46.91 47.09 47.13 47.34 47.64 48.09 47.96 48.04 48.29 48.51 48.73 49.00 49.31 49.58 49.65 49.84 50.13 50.33 50.73 51.37 52.25 53.10 53.42 53.39 53.22 52.87 52.50 52.17 52.01 52.02 51.85 51.51 51.34 51.02 50.93 50.84 50.79 50.83 50.69 50.46 50.06 49.74 49.34
42.41 42.50 42.58 42.63 42.67 42.96 43.21 43.05 42.88 42.84 42.92 43.05 43.30 43.55 43.92 44.17 44.51 44.72 44.93 44.98 45.11 45.24 45.37 45.71 45.97 46.24 46.46 46.76 46.85 47.02 47.23 47.43 47.51 47.68 47.80 48.01 48.27 48.60 48.92 49.37 49.41 49.52 49.79 50.19 50.16 50.34 50.86 51.61 52.11 52.43 52.64 52.65 52.28 51.97 51.74 51.40 51.40 51.23 50.97 50.53 50.26 50.25 50.29 50.29 50.20 50.02 49.75 49.52 49.20
42.06 42.11 42.32 42.59 42.25 42.12 42.08 42.08 42.12 42.20 42.32 42.57 42.83 43.04 43.34 43.55 43.89 44.09 44.18 44.18 44.27 44.31 44.52 45.15 45.41 45.68 45.94 46.21 46.38 46.51 46.55 46.55 46.59 46.72 46.97 47.18 47.53 47.89 48.30 48.92 49.21 49.59 50.04 50.63 50.72 50.56 50.48 50.66 50.66 51.00 51.37 51.65 51.58 51.64 51.58 51.22 51.18 51.05 50.79 50.39 50.16 49.98 49.89 49.85 49.71 49.58 49.49 49.30 49.16
41.65 41.78 41.88 41.98 41.81 41.72 41.68 41.59 41.54 41.66 41.82 42.12 42.33 42.59 42.77 42.90 43.12 43.33 43.38 43.38 43.42 43.63 43.80 44.06 44.35 44.86 45.34 45.73 45.95 45.99 45.91 45.78 45.73 45.95 46.17 46.38 46.77 47.20 47.81 48.50 49.09 49.62 50.16 50.56 50.79 50.97 51.19 51.34 51.08 50.78 50.65 50.60 50.52 50.70 50.93 51.07 50.95 50.86 50.72 50.41 50.10 49.84 49.66 49.44 49.39 49.35 49.30 49.12 48.94
41.28 41.33 41.38 41.30 41.39 41.39 41.39 41.30 41.29 41.40 41.53 41.74 41.87 41.96 42.10 42.19 42.46 42.51 42.42 42.38 42.56 42.86 43.03 43.24 43.59 44.31 44.99 45.04 45.12 45.21 45.29 45.43 45.47 45.43 45.60 45.91 46.08 46.52 47.12 47.85 48.57 49.21 49.70 50.12 50.71 51.25 51.70 52.07 51.93 51.53 50.97 50.45 50.03 49.60 49.30 49.12 49.62 50.10 50.31 50.22 49.95 49.64 49.34 49.03 48.67 48.63 48.63 48.67 48.58
40.85 40.90 40.91 41.10 41.06 40.97 40.96 41.05 41.08 41.12 41.20 41.33 41.37 41.42 41.43 41.57 41.98 41.81 41.63 41.68 41.81 42.12 42.34 42.68 43.02 43.84 44.48 44.35 44.24 44.41 44.67 45.07 45.12 45.07 45.21 45.34 45.52 45.86 46.30 47.07 47.87 48.50 49.09 49.70 50.50 51.19 51.82 52.23 52.23 51.97 51.40 50.61 49.93 49.33 48.76 48.32 48.58 49.02 49.46 49.54 49.40 49.23 48.88 48.53 48.26 48.09 48.09 48.17 48.26
40.34 40.48 40.58 40.67 40.54 40.50 40.55 40.63 40.63 40.71 40.75 40.89 40.85 41.08 41.23 41.19 41.19 41.32 41.32 41.41 41.64 41.90 42.11 42.50 42.88 43.31 43.61 43.59 43.53 43.74 44.05 44.37 44.55 44.64 44.73 44.69 44.91 45.13 45.56 46.33 47.01 47.78 48.69 49.57 50.29 50.97 51.51 51.91 51.95 51.91 51.52 50.91 50.10 49.40 48.83 48.43 48.26 48.43 48.55 48.73 48.73 48.51 48.25 48.03 47.94 47.68 47.50 47.55 47.63
39.82 39.92 39.92 39.93 39.85 39.87 39.92 39.88 40.02 40.16 40.39 40.53 40.67 40.76 40.94 40.94 41.01 41.01 41.18 41.22 41.39 41.56 41.94 42.37 43.00 43.12 42.93 42.87 42.97 43.11 43.33 43.38 43.78 44.00 44.05 43.96 44.13 44.39 44.82 45.30 45.95 46.94 48.20 49.47 50.13 50.62 50.89 51.25 51.43 51.52 51.47 51.16 50.60 50.08 49.60 49.03 48.58 48.36 48.09 48.13 47.75 47.50 47.19 47.19 47.23 47.15 46.93 46.70 46.75
39.46 39.46 39.42 39.38 39.32 39.38 39.40 39.37 39.56 39.74 39.94 40.27 40.26 40.21 40.29 40.37 40.45 40.57 40.69 40.81 40.92 41.40 42.01 42.50 42.58 42.54 42.41 42.28 42.52 42.70 42.84 42.92 43.23 43.32 43.28 43.23 43.32 43.67 44.05 44.61 45.04 46.03 47.45 49.07 49.68 50.04 50.31 50.54 50.78 51.01 51.10 51.05 50.43 50.03 49.60 49.20 48.68 48.28 47.89 47.66 47.14 46.66 46.52 46.44 46.30 46.26 46.26 46.21 45.99
39.03 39.04 39.00 38.88 38.81 38.78 38.80 38.83 39.02 39.14 39.37 39.57 39.42 39.37 39.41 39.45 39.52 39.82 40.19 40.34 40.82 41.61 42.15 42.18 41.92 41.84 41.81 41.94 41.99 42.04 42.13 42.40 42.62 42.71 42.80 42.71 43.23 43.44 43.52 43.73 44.08 45.26 46.76 48.32 48.84 49.28 49.51 49.74 50.07 50.35 50.40 50.41 50.14 49.79 49.39 49.00 48.56 48.17 47.81 47.54 47.06 46.52 46.17 45.99 46.03 45.81 45.54 45.45 45.50
38.37 38.51 38.48 38.37 38.29 38.27 38.34 38.41 38.52 38.58 38.63 38.49 38.45 38.42 38.48 38.43 38.67 39.13 39.57 40.08 40.48 40.87 41.04 41.03 41.00 41.05 41.06 41.11 41.12 41.21 41.31 41.53 41.62 41.92 42.18 42.35 42.43 42.51 42.77 43.21 43.56 44.61 45.99 47.62 48.14 48.49 48.75 49.03 49.26 49.54 49.87 49.89 49.80 49.63 49.14 48.53 48.26 47.99 47.72 47.46 47.01 46.48 46.12 46.04 46.04 45.77 45.45 45.27 45.23
37.78 38.16 38.42 38.08 38.09 38.15 38.21 38.13 38.19 38.19 38.09 37.92 37.80 37.74 37.76 37.78 38.06 38.45 38.86 39.38 39.71 39.86 39.81 40.02 40.26 40.27 40.27 40.32 40.28 40.47 40.66 40.94 41.16 41.41 41.62 41.77 41.76 41.88 42.18 42.76 43.13 44.22 45.68 46.93 47.44 47.75 47.97 48.24 48.52 48.88 49.25 49.53 49.63 49.37 48.98 48.31 48.09 47.86 47.64 47.42 47.06 46.57 46.17 45.77 45.81 45.72 45.50 45.37 45.05
38.51 38.53 38.53 38.18 38.15 38.31 38.42 38.26 38.24 38.08 37.84 37.57 37.42 37.41 37.40 37.46 37.63 37.95 38.35 39.03 39.37 39.53 39.64 39.69 39.86 40.00 40.06 40.20 40.20 40.25 40.49 41.27 41.05 40.86 40.75 40.89 41.05 41.31 41.61 42.06 42.71 44.01 45.42 46.33 46.80 47.02 47.24 47.38 47.60 48.00 48.41 48.86 49.20 49.03 48.50 48.05 47.82 47.69 47.37 47.19 47.06 46.70 46.39 45.90 45.76 45.45 45.37 45.19 44.97
38.54 38.46 38.26 38.05 38.09 38.21 38.28 38.27 38.14 37.88 37.58 37.26 37.19 37.27 37.33 37.41 37.54 37.80 38.29 39.06 39.37 39.31 39.24 39.33 39.59 39.82 40.02 40.25 40.16 40.16 40.35 40.68 40.55 40.54 40.53 40.64 40.66 40.82 40.99 41.22 41.82 43.31 44.78 45.60 45.99 46.12 46.29 46.51 46.77 47.04 47.35 47.89 48.31 48.41 48.18 47.64 47.46 47.28 47.10 46.88 46.75 46.61 46.34 46.12 45.85 45.63 45.50 45.24 44.97
37.77 37.74 37.50 37.64 37.63 37.53 37.55 37.69 37.63 37.52 37.23 36.95 36.91 36.95 37.12 37.24 37.35 37.62 38.13 38.97 38.83 38.55 38.44 38.66 38.87 38.90 38.98 39.26 39.64 39.97 40.20 40.16 40.19 40.37 40.59 40.81 40.61 40.41 40.48 40.71 41.18 42.38 43.87 44.74 44.95 45.17 45.25 45.47 45.77 46.04 46.43 46.79 47.42 47.69 47.78 47.51 47.24 46.92 46.74 46.57 46.57 46.48 46.39 46.21 46.03 45.77 45.59 45.32 45.01
37.42 37.08 36.91 37.10 37.09 37.04 36.91 36.97 36.99 36.96 36.87 36.61 36.46 36.49 36.62 36.80 36.93 37.29 37.80 38.32 37.85 37.65 37.73 38.08 38.16 38.27 38.35 38.56 38.93 39.20 39.46 39.87 40.35 40.59 40.72 40.97 40.82 40.66 40.57 40.84 40.90 41.67 42.77 43.91 44.30 44.48 44.61 44.69 44.95 45.17 45.38 45.64 46.25 46.83 47.28 47.24 46.97 46.74 46.47 46.30 46.34 46.39 46.48 46.39 46.17 45.90 45.59 45.28 44.88
36.86 36.81 36.59 36.45 36.57 36.64 36.60 36.38 36.03 35.84 35.74 35.77 35.71 35.89 36.18 36.29 36.59 36.91 37.48 38.17 37.50 37.39 37.56 37.68 37.71 37.88 38.18 38.54 39.09 39.22 39.30 39.90 40.60 40.74 40.69 40.72 41.07 41.11 40.99 40.93 41.02 41.47 42.28 43.39 43.96 44.22 44.35 44.52 44.61 44.73 44.73 44.67 45.27 45.94 46.56 46.79 46.61 46.43 46.25 46.12 46.12 46.25 46.35 46.48 46.35 46.08 45.67 45.14 44.47
35.84 35.87 35.59 35.33 35.43 35.44 35.27 34.97 34.79 34.74 34.86 34.99 35.19 35.51 35.76 35.91 36.18 36.69 37.46 37.96 37.56 37.69 37.92 38.05 38.03 38.19 38.53 39.12 39.59 39.49 39.25 39.38 40.03 40.40 40.65 40.76 41.20 41.36 41.28 41.04 41.06 41.47 42.20 43.35 43.91 44.22 44.48 44.56 44.61 44.65 44.56 44.28 44.57 45.14 45.80 46.25 46.11 45.98 45.93 45.76 45.80 45.85 45.99 46.26 46.12 45.99 45.58 45.00 44.42
34.48 34.56 34.46 34.32 34.39 34.31 34.12 33.84 33.95 34.15 34.36 34.64 34.99 35.16 35.40 35.84 36.39 37.10 37.84 38.28 38.07 38.14 38.36 38.53 38.11 38.21 38.61 39.29 39.29 39.06 38.76 38.43 38.99 39.70 40.27 40.64 41.01 41.30 41.36 41.13 40.99 41.30 42.01 43.10 43.79 44.26 44.48 44.65 44.69 44.74 44.56 44.06 44.26 44.69 45.13 45.57 45.53 45.44 45.35 45.44 45.40 45.40 45.49 45.67 45.71 45.58 45.26 44.64 44.46
34.06 33.97 33.80 33.83 33.84 33.79 33.70 33.50 33.75 34.02 34.12 34.20 34.60 35.17 35.79 36.61 37.12 37.63 38.00 38.21 38.24 38.29 38.26 38.23 37.98 37.97 38.27 38.86 38.90 38.70 38.27 37.92 38.59 39.19 39.74 40.19 40.44 40.76 41.02 40.86 40.80 41.01 41.57 42.43 43.36 43.96 44.44 44.61 44.74 44.82 44.69 44.07 44.08 44.29 44.64 44.85 44.72 44.63 44.67 44.86 44.95 44.95 44.90 44.86 44.95 44.81 44.54 44.09 44.05
MSLP
1013.68 1013.76 1013.76 1013.84 1013.88 1013.92 1014.00 1014.04 1014.08 1014.12 1014.12 1014.04 1014.04 1013.92 1013.84 1013.80 1013.80 1013.80 1013.80 1013.80 1013.84 1013.88 1013.88 1013.88 1013.88 1013.92 1013.92 1013.92 1013.92 1013.88 1013.84 1013.84 1013.84 1013.84 1013.88 1013.92 1013.92 1013.92 1013.96 1014.00 1014.04 1014.04 1014.04 1014.04 1014.08 1014.08 1014.12 1014.12 1014.16 1014.16 1014.16 1014.16 1014.16 1014.16 1014.20 1014.24 1014.32 1014.40 1014.44 1014.48 1014.44 1014.48 1014.48 1014.56 1014.56 1014.60 1014.60 1014.64 1014.76
1013.76 1013.76 1013.76 1013.80 1013.84 1013.92 1013.96 1014.04 1014.04 1014.04 1014.04 1014.00 1013.96 1013.92 1013.84 1013.80 1013.76 1013.76 1013.76 1013.76 1013.76 1013.76 1013.76 1013.76 1013.76 1013.76 1013.76 1013.76 1013.76 1013.76 1013.76 1013.76 1013.76 1013.76 1013.76 1013.76 1013.76 1013.80 1013.88 1013.92 1013.96 1014.00 1014.04 1014.04 1014.04 1014.08 1014.08 1014.04 1014.08 1014.08 1014.08 1014.08 1014.12 1014.12 1014.12 1014.16 1014.24 1014.32 1014.40 1014.44 1014.40 1014.36 1014.36 1014.40 1014.40 1014.44 1014.48 1014.52 1014.60
1013.72 1013.72 1013.76 1013.76 1013.80 1013.84 1013.92 1014.00 1014.04 1014.04 1014.04 1014.00 1013.92 1013.84 1013.80 1013.76 1013.76 1013.76 1013.68 1013.64 1013.60 1013.60 1013.60 1013.64 1013.64 1013.64 1013.64 1013.64 1013.64 1013.64 1013.64 1013.64 1013.68 1013.68 1013.68 1013.68 1013.72 1013.76 1013.76 1013.80 1013.88 1013.92 1013.96 1013.96 1013.96 1014.00 1014.00 1014.04 1014.04 1014.04 1014.04 1014.04 1014.04 1014.04 1014.04 1014.12 1014.20 1014.28 1014.36 1014.36 1014.36 1014.36 1014.32 1014.32 1014.32 1014.32 1014.40 1014.48 1014.48
1013.68 1013.68 1013.68 1013.72 1013.76 1013.80 1013.92 1013.96 1014.04 1014.04 1014.04 1013.96 1013.92 1013.80 1013.76 1013.72 1013.64 1013.60 1013.56 1013.52 1013.52 1013.52 1013.52 1013.56 1013.60 1013.56 1013.56 1013.60 1013.64 1013.60 1013.60 1013.60 1013.64 1013.64 1013.64 1013.68 1013.68 1013.68 1013.72 1013.76 1013.76 1013.84 1013.84 1013.84 1013.88 1013.92 1013.92 1013.92 1013.96 1014.00 1014.00 1013.96 1014.00 1014.00 1014.00 1014.04 1014.08 1014.20 1014.24 1014.32 1014.32 1014.32 1014.32 1014.28 1014.28 1014.32 1014.32 1014.40 1014.44
1013.84 1013.80 1013.76 1013.76 1013.76 1013.84 1013.88 1013.92 1014.00 1014.04 1013.96 1013.92 1013.84 1013.76 1013.68 1013.64 1013.56 1013.48 1013.48 1013.48 1013.48 1013.48 1013.52 1013.52 1013.56 1013.52 1013.52 1013.52 1013.56 1013.60 1013.60 1013.60 1013.60 1013.64 1013.64 1013.68 1013.72 1013.68 1013.68 1013.72 1013.72 1013.72 1013.76 1013.76 1013.76 1013.76 1013.80 1013.84 1013.88 1013.88 1013.88 1013.92 1013.92 1013.92 1013.92 1013.96 1014.00 1014.04 1014.12 1014.20 1014.24 1014.32 1014.32 1014.32 1014.32 1014.32 1014.32 1014.36 1014.40
1014.08 1014.04 1014.00 1013.92 1013.92 1013.92 1013.96 1014.04 1014.04 1014.08 1014.04 1013.96 1013.92 1013.80 1013.72 1013.64 1013.56 1013.56 1013.56 1013.56 1013.52 1013.52 1013.52 1013.52 1013.56 1013.56 1013.56 1013.56 1013.60 1013.60 1013.64 1013.64 1013.64 1013.64 1013.64 1013.68 1013.72 1013.72 1013.72 1013.68 1013.68 1013.68 1013.68 1013.68 1013.68 1013.68 1013.72 1013.76 1013.76 1013.76 1013.76 1013.76 1013.76 1013.76 1013.80 1013.92 1013.92 1013.96 1014.00 1014.04 1014.12 1014.20 1014.24 1014.32 1014.32 1014.32 1014.36 1014.40 1014.44
1014.28 1014.24 1014.20 1014.16 1014.12 1014.12 1014.20 1014.20 1014.20 1014.20 1014.16 1014.08 1014.04 1013.96 1013.88 1013.76 1013.68 1013.64 1013.64 1013.64 1013.64 1013.60 1013.60 1013.60 1013.60 1013.60 1013.64 1013.64 1013.64 1013.64 1013.64 1013.64 1013.64 1013.64 1013.64 1013.64 1013.64 1013.64 1013.68 1013.68 1013.64 1013.64 1013.64 1013.64 1013.64 1013.64 1013.68 1013.72 1013.72 1013.68 1013.64 1013.68 1013.68 1013.68 1013.72 1013.80 1013.84 1013.88 1013.92 1013.92 1013.96 1014.04 1014.12 1014.20 1014.20 1014.28 1014.32 1014.36 1014.40
1014.40 1014.40 1014.36 1014.32 1014.32 1014.32 1014.32 1014.36 1014.36 1014.32 1014.28 1014.20 1014.12 1014.04 1013.92 1013.84 1013.76 1013.72 1013.72 1013.72 1013.72 1013.72 1013.68 1013.64 1013.64 1013.64 1013.64 1013.64 1013.64 1013.64 1013.64 1013.64 1013.60 1013.60 1013.60 1013.60 1013.60 1013.60 1013.64 1013.64 1013.64 1013.64 1013.60 1013.60 1013.60 1013.64 1013.64 1013.64 1013.64 1013.60 1013.56 1013.56 1013.60 1013.60 1013.64 1013.64 1013.72 1013.76 1013.80 1013.80 1013.88 1013.92 1013.92 1014.00 1014.08 1014.16 1014.20 1014.20 1014.32
1014.48 1014.48 1014.44 1014.40 1014.40 1014.44 1014.44 1014.44 1014.44 1014.40 1014.36 1014.32 1014.16 1014.04 1013.96 1013.88 1013.80 1013.76 1013.76 1013.76 1013.76 1013.72 1013.72 1013.72 1013.68 1013.64 1013.64 1013.64 1013.64 1013.60 1013.56 1013.56 1013.56 1013.52 1013.52 1013.52 1013.48 1013.52 1013.52 1013.52 1013.56 1013.56 1013.56 1013.56 1013.56 1013.56 1013.56 1013.60 1013.52 1013.48 1013.48 1013.48 1013.48 1013.48 1013.48 1013.52 1013.60 1013.64 1013.64 1013.68 1013.76 1013.80 1013.88 1013.88 1013.96 1014.00 1014.04 1014.08 1014.20
1014.48 1014.52 1014.52 1014.52 1014.52 1014.56 1014.56 1014.56 1014.52 1014.48 1014.36 1014.32 1014.16 1014.04 1013.92 1013.88 1013.84 1013.80 1013.76 1013.76 1013.72 1013.72 1013.72 1013.76 1013.68 1013.68 1013.68 1013.64 1013.64 1013.60 1013.60 1013.56 1013.48 1013.48 1013.48 1013.48 1013.48 1013.44 1013.44 1013.44 1013.48 1013.48 1013.48 1013.52 1013.52 1013.52 1013.52 1013.52 1013.48 1013.48 1013.48 1013.48 1013.44 1013.40 1013.40 1013.40 1013.44 1013.48 1013.48 1013.56 1013.64 1013.72 1013.76 1013.80 1013.84 1013.88 1013.92 1013.96 1014.04
1014.60 1014.64 1014.68 1014.72 1014.72 1014.68 1014.68 1014.64 1014.56 1014.48 1014.36 1014.32 1014.20 1014.08 1014.00 1013.92 1013.92 1013.88 1013.80 1013.76 1013.76 1013.76 1013.76 1013.76 1013.72 1013.72 1013.72 1013.68 1013.64 1013.64 1013.56 1013.52 1013.48 1013.44 1013.40 1013.40 1013.40 1013.36 1013.32 1013.32 1013.32 1013.32 1013.36 1013.40 1013.48 1013.48 1013.48 1013.48 1013.48 1013.48 1013.44 1013.44 1013.40 1013.36 1013.32 1013.32 1013.32 1013.32 1013.36 1013.40 1013.48 1013.60 1013.64 1013.68 1013.72 1013.76 1013.76 1013.84 1013.92
1014.76 1014.76 1014.80 1014.80 1014.80 1014.76 1014.72 1014.68 1014.60 1014.48 1014.40 1014.32 1014.20 1014.16 1014.08 1014.04 1014.04 1014.00 1013.92 1013.92 1013.92 1013.92 1013.84 1013.76 1013.76 1013.76 1013.72 1013.68 1013.64 1013.56 1013.52 1013.48 1013.44 1013.40 1013.36 1013.32 1013.32 1013.32 1013.28 1013.28 1013.28 1013.24 1013.20 1013.24 1013.32 1013.36 1013.40 1013.44 1013.44 1013.44 1013.44 1013.44 1013.44 1013.36 1013.32 1013.32 1013.28 1013.32 1013.32 1013.36 1013.44 1013.48 1013.48 1013.52 1013.56 1013.60 1013.60 1013.64 1013.72
1014.84 1014.84 1014.84 1014.84 1014.80 1014.76 1014.72 1014.68 1014.60 1014.52 1014.44 1014.36 1014.32 1014.28 1014.24 1014.20 1014.20 1014.16 1014.12 1014.12 1014.12 1014.04 1013.96 1013.92 1013.88 1013.80 1013.76 1013.68 1013.64 1013.56 1013.48 1013.48 1013.40 1013.36 1013.32 1013.32 1013.32 1013.28 1013.24 1013.20 1013.20 1013.20 1013.20 1013.16 1013.20 1013.24 1013.32 1013.36 1013.36 1013.36 1013.36 1013.36 1013.36 1013.32 1013.28 1013.32 1013.28 1013.24 1013.28 1013.32 1013.36 1013.40 1013.40 1013.40 1013.44 1013.48 1013.52 1013.56 1013.60
1014.92 1014.92 1014.92 1014.88 1014.88 1014.84 1014.76 1014.76 1014.68 1014.60 1014.52 1014.48 1014.48 1014.40 1014.36 1014.36 1014.32 1014.32 1014.32 1014.32 1014.28 1014.20 1014.12 1014.04 1013.96 1013.92 1013.80 1013.76 1013.64 1013.60 1013.52 1013.48 1013.44 1013.36 1013.32 1013.28 1013.28 1013.24 1013.20 1013.16 1013.16 1013.12 1013.08 1013.08 1013.08 1013.16 1013.20 1013.20 1013.24 1013.28 1013.32 1013.28 1013.28 1013.28 1013.24 1013.24 1013.24 1013.20 1013.20 1013.20 1013.24 1013.28 1013.28 1013.24 1013.32 1013.36 1013.44 1013.48 1013.48
1015.04 1015.04 1015.04 1014.96 1014.92 1014.92 1014.92 1014.88 1014.80 1014.76 1014.72 1014.68 1014.60 1014.60 1014.56 1014.52 1014.48 1014.48 1014.48 1014.44 1014.40 1014.32 1014.24 1014.20 1014.08 1013.96 1013.88 1013.80 1013.72 1013.64 1013.60 1013.52 1013.44 1013.36 1013.32 1013.28 1013.20 1013.20 1013.16 1013.12 1013.08 1013.04 1013.04 1013.00 1013.00 1013.04 1013.08 1013.12 1013.12 1013.16 1013.20 1013.20 1013.16 1013.16 1013.20 1013.20 1013.16 1013.12 1013.12 1013.12 1013.12 1013.12 1013.12 1013.16 1013.20 1013.20 1013.24 1013.24 1013.32
1015.20 1015.20 1015.16 1015.12 1015.08 1015.08 1015.08 1015.04 1015.00 1014.92 1014.92 1014.88 1014.80 1014.76 1014.76 1014.72 1014.64 1014.60 1014.60 1014.52 1014.48 1014.40 1014.32 1014.28 1014.20 1014.08 1013.96 1013.88 1013.76 1013.72 1013.64 1013.60 1013.48 1013.40 1013.32 1013.28 1013.20 1013.16 1013.12 1013.04 1013.04 1013.04 1013.00 1012.96 1012.92 1012.92 1012.92 1013.00 1013.04 1013.04 1013.04 1013.04 1013.04 1013.04 1013.04 1013.04 1013.04 1013.04 1013.04 1013.00 1013.00 1013.00 1013.04 1013.04 1013.04 1013.08 1013.08 1013.12 1013.16
1015.36 1015.32 1015.32 1015.32 1015.28 1015.28 1015.24 1015.20 1015.16 1015.12 1015.08 1015.04 1014.96 1014.92 1014.88 1014.84 1014.76 1014.76 1014.72 1014.60 1014.56 1014.48 1014.44 1014.32 1014.24 1014.16 1014.04 1013.92 1013.88 1013.76 1013.72 1013.64 1013.56 1013.48 1013.40 1013.32 1013.24 1013.16 1013.08 1013.04 1012.96 1012.92 1012.92 1012.92 1012.88 1012.84 1012.80 1012.84 1012.88 1012.92 1012.92 1012.92 1012.92 1012.92 1012.92 1012.92 1012.92 1012.92 1012.88 1012.88 1012.88 1012.88 1012.92 1012.92 1012.92 1012.96 1013.00 1013.04 1013.04
1015.60 1015.56 1015.52 1015.48 1015.48 1015.48 1015.44 1015.36 1015.32 1015.28 1015.20 1015.20 1015.12 1015.04 1015.00 1014.92 1014.92 1014.84 1014.76 1014.72 1014.64 1014.60 1014.48 1014.36 1014.28 1014.20 1014.12 1014.04 1013.92 1013.84 1013.76 1013.68 1013.64 1013.52 1013.44 1013.32 1013.24 1013.16 1013.04 1013.00 1012.92 1012.84 1012.80 1012.80 1012.80 1012.76 1012.72 1012.72 1012.72 1012.76 1012.80 1012.80 1012.84 1012.84 1012.80 1012.80 1012.80 1012.76 1012.76 1012.76 1012.76 1012.76 1012.76 1012.76 1012.80 1012.84 1012.92 1012.92 1012.96
1015.88 1015.80 1015.76 1015.76 1015.72 1015.64 1015.64 1015.56 1015.48 1015.44 1015.36 1015.28 1015.24 1015.16 1015.08 1015.04 1015.00 1014.92 1014.84 1014.76 1014.72 1014.64 1014.60 1014.48 1014.36 1014.24 1014.16 1014.08 1014.00 1013.92 1013.80 1013.72 1013.64 1013.56 1013.44 1013.32 1013.24 1013.16 1013.04 1012.96 1012.88 1012.80 1012.76 1012.76 1012.68 1012.60 1012.60 1012.60 1012.56 1012.60 1012.60 1012.64 1012.68 1012.68 1012.68 1012.72 1012.68 1012.64 1012.64 1012.64 1012.60 1012.60 1012.60 1012.60 1012.68 1012.76 1012.76 1012.84 1012.88
1016.12 1016.04 1016.04 1015.96 1015.92 1015.88 1015.80 1015.76 1015.64 1015.60 1015.48 1015.44 1015.36 1015.32 1015.24 1015.16 1015.08 1015.04 1014.92 1014.88 1014.76 1014.68 1014.60 1014.56 1014.44 1014.32 1014.20 1014.12 1014.04 1013.92 1013.84 1013.76 1013.68 1013.60 1013.48 1013.32 1013.24 1013.16 1013.04 1012.96 1012.88 1012.76 1012.72 1012.64 1012.60 1012.52 1012.48 1012.44 1012.44 1012.44 1012.44 1012.48 1012.52 1012.52 1012.52 1012.56 1012.60 1012.56 1012.52 1012.52 1012.48 1012.52 1012.52 1012.52 1012.56 1012.60 1012.68 1012.72 1012.76
1016.32 1016.28 1016.24 1016.20 1016.12 1016.04 1016.00 1015.92 1015.84 1015.76 1015.64 1015.64 1015.52 1015.48 1015.40 1015.32 1015.20 1015.16 1015.04 1014.96 1014.84 1014.76 1014.72 1014.60 1014.52 1014.40 1014.32 1014.20 1014.08 1013.96 1013.84 1013.76 1013.68 1013.60 1013.48 1013.40 1013.28 1013.16 1013.04 1012.92 1012.88 1012.76 1012.64 1012.60 1012.48 1012.44 1012.36 1012.32 1012.28 1012.24 1012.24 1012.28 1012.32 1012.32 1012.32 1012.36 1012.40 1012.40 1012.40 1012.36 1012.36 1012.36 1012.40 1012.40 1012.48 1012.48 1012.52 1012.60 1012.68
1016.48 1016.48 1016.44 1016.36 1016.28 1016.20 1016.16 1016.04 1015.96 1015.92 1015.84 1015.76 1015.68 1015.60 1015.52 1015.48 1015.36 1015.28 1015.20 1015.04 1014.92 1014.88 1014.80 1014.68 1014.60 1014.48 1014.36 1014.24 1014.16 1014.04 1013.88 1013.76 1013.68 1013.60 1013.48 1013.36 1013.24 1013.16 1013.04 1012.92 1012.84 1012.76 1012.64 1012.56 1012.48 1012.40 1012.32 1012.20 1012.12 1012.08 1012.08 1012.08 1012.12 1012.12 1012.16 1012.16 1012.20 1012.20 1012.20 1012.20 1012.24 1012.24 1012.20 1012.24 1012.32 1012.32 1012.36 1012.44 1012.52
1016.60 1016.60 1016.56 1016.48 1016.40 1016.32 1016.24 1016.16 1016.08 1016.04 1015.96 1015.92 1015.84 1015.76 1015.68 1015.60 1015.52 1015.44 1015.32 1015.20 1015.08 1015.00 1014.92 1014.80 1014.68 1014.56 1014.44 1014.32 1014.20 1014.04 1013.92 1013.76 1013.64 1013.56 1013.44 1013.36 1013.28 1013.16 1013.00 1012.92 1012.80 1012.72 1012.60 1012.48 1012.44 1012.36 1012.32 1012.20 1012.08 1012.00 1011.92 1011.92 1011.92 1011.92 1011.96 1011.96 1012.00 1012.04 1012.04 1012.04 1012.08 1012.08 1012.08 1012.08 1012.16 1012.20 1012.20 1012.24 1012.32
1016.76 1016.72 1016.60 1016.56 1016.48 1016.44 1016.32 1016.28 1016.20 1016.16 1016.08 1016.04 1016.00 1015.92 1015.80 1015.76 1015.64 1015.52 1015.44 1015.32 1015.24 1015.12 1015.04 1014.92 1014.76 1014.60 1014.48 1014.32 1014.20 1014.08 1013.92 1013.80 1013.68 1013.52 1013.44 1013.32 1013.24 1013.12 1013.00 1012.88 1012.76 1012.64 1012.52 1012.44 1012.32 1012.28 1012.24 1012.16 1012.08 1012.00 1011.92 1011.88 1011.80 1011.76 1011.76 1011.80 1011.80 1011.84 1011.88 1011.88 1011.88 1011.92 1011.92 1011.96 1012.00 1012.04 1012.04 1012.08 1012.16
1016.88 1016.80 1016.72 1016.64 1016.60 1016.52 1016.48 1016.40 1016.36 1016.32 1016.20 1016.16 1016.08 1016.04 1015.92 1015.84 1015.76 1015.64 1015.52 1015.40 1015.32 1015.24 1015.12 1015.00 1014.84 1014.68 1014.52 1014.36 1014.20 1014.04 1013.96 1013.84 1013.76 1013.64 1013.48 1013.32 1013.20 1013.08 1013.00 1012.88 1012.72 1012.56 1012.44 1012.32 1012.20 1012.12 1012.08 1012.04 1012.04 1011.96 1011.92 1011.84 1011.76 1011.72 1011.68 1011.64 1011.64 1011.64 1011.64 1011.64 1011.68 1011.68 1011.72 1011.76 1011.76 1011.80 1011.84 1011.84 1011.92
1016.92 1016.88 1016.84 1016.76 1016.72 1016.64 1016.60 1016.56 1016.52 1016.44 1016.32 1016.24 1016.20 1016.12 1016.04 1015.92 1015.80 1015.72 1015.64 1015.48 1015.40 1015.28 1015.16 1015.04 1014.88 1014.72 1014.52 1014.36 1014.20 1014.04 1013.96 1013.84 1013.72 1013.64 1013.48 1013.32 1013.20 1013.04 1012.96 1012.84 1012.68 1012.52 1012.36 1012.24 1012.12 1012.04 1011.96 1011.92 1011.92 1011.88 1011.84 1011.76 1011.76 1011.72 1011.64 1011.64 1011.60 1011.52 1011.48 1011.48 1011.48 1011.48 1011.52 1011.52 1011.52 1011.56 1011.60 1011.64 1011.64
1017.04 1017.00 1016.96 1016.88 1016.84 1016.80 1016.76 1016.68 1016.60 1016.56 1016.48 1016.36 1016.28 1016.20 1016.12 1016.04 1015.92 1015.76 1015.64 1015.56 1015.40 1015.28 1015.16 1015.00 1014.84 1014.72 1014.52 1014.32 1014.20 1014.04 1013.92 1013.80 1013.68 1013.60 1013.44 1013.32 1013.20 1013.04 1012.92 1012.76 1012.64 1012.48 1012.32 1012.20 1012.12 1012.00 1011.92 1011.84 1011.76 1011.76 1011.76 1011.72 1011.68 1011.64 1011.64 1011.56 1011.52 1011.48 1011.44 1011.36 1011.32 1011.32 1011.32 1011.28 1011.28 1011.32 1011.36 1011.36 1011.40
1017.20 1017.12 1017.08 1017.04 1017.00 1016.96 1016.92 1016.84 1016.76 1016.68 1016.60 1016.52 1016.40 1016.28 1016.16 1016.04 1015.96 1015.84 1015.72 1015.60 1015.44 1015.28 1015.12 1014.96 1014.80 1014.60 1014.48 1014.32 1014.20 1014.04 1013.92 1013.76 1013.64 1013.48 1013.40 1013.32 1013.16 1013.00 1012.88 1012.76 1012.60 1012.48 1012.32 1012.20 1012.08 1011.96 1011.88 1011.76 1011.68 1011.64 1011.60 1011.60 1011.56 1011.56 1011.48 1011.44 1011.40 1011.32 1011.32 1011.24 1011.20 1011.16 1011.12 1011.08 1011.08 1011.12 1011.16 1011.16 1011.20
1017.36 1017.32 1017.24 1017.20 1017.20 1017.12 1017.04 1017.00 1016.92 1016.80 1016.72 1016.60 1016.48 1016.36 1016.24 1016.16 1016.04 1015.92 1015.76 1015.60 1015.44 1015.28 1015.12 1014.96 1014.76 1014.60 1014.48 1014.32 1014.20 1014.00 1013.84 1013.72 1013.56 1013.44 1013.28 1013.16 1013.04 1012.92 1012.76 1012.64 1012.52 1012.40 1012.24 1012.16 1012.04 1011.92 1011.84 1011.72 1011.64 1011.52 1011.44 1011.44 1011.40 1011.32 1011.32 1011.28 1011.20 1011.16 1011.08 1011.04 1011.04 1011.00 1011.00 1011.00 1010.96 1010.96 1011.00 1011.00 1011.04
1017.52 1017.48 1017.44 1017.40 1017.36 1017.32 1017.20 1017.16 1017.04 1016.92 1016.84 1016.76 1016.60 1016.48 1016.40 1016.24 1016.08 1015.96 1015.80 1015.68 1015.48 1015.32 1015.16 1015.00 1014.80 1014.64 1014.48 1014.32 1014.16 1013.96 1013.80 1013.68 1013.48 1013.36 1013.24 1013.12 1012.96 1012.80 1012.64 1012.56 1012.44 1012.32 1012.20 1012.08 1011.96 1011.84 1011.72 1011.64 1011.52 1011.44 1011.32 1011.28 1011.24 1011.20 1011.12 1011.04 1011.04 1011.00 1010.92 1010.88 1010.84 1010.84 1010.84 1010.88 1010.84 1010.84 1010.84 1010.84 1010.88
1017.72 1017.68 1017.64 1017.60 1017.56 1017.48 1017.40 1017.32 1017.20 1017.12 1017.04 1016.92 1016.76 1016.64 1016.52 1016.36 1016.24 1016.08 1015.92 1015.76 1015.56 1015.32 1015.16 1015.00 1014.84 1014.64 1014.48 1014.32 1014.16 1014.00 1013.84 1013.64 1013.48 1013.32 1013.20 1013.08 1012.92 1012.72 1012.60 1012.48 1012.36 1012.24 1012.12 1012.04 1011.92 1011.76 1011.64 1011.56 1011.48 1011.36 1011.28 1011.20 1011.12 1011.04 1010.92 1010.84 1010.80 1010.76 1010.76 1010.64 1010.60 1010.64 1010.64 1010.64 1010.68 1010.68 1010.68 1010.68 1010.68
1017.92 1017.92 1017.84 1017.84 1017.76 1017.68 1017.60 1017.48 1017.40 1017.32 1017.20 1017.04 1016.92 1016.76 1016.60 1016.48 1016.32 1016.16 1015.96 1015.76 1015.60 1015.36 1015.20 1015.04 1014.84 1014.64 1014.48 1014.32 1014.12 1014.00 1013.84 1013.64 1013.48 1013.32 1013.20 1013.04 1012.88 1012.68 1012.52 1012.36 1012.28 1012.20 1012.04 1011.96 1011.84 1011.72 1011.60 1011.48 1011.40 1011.28 1011.16 1011.08 1011.00 1010.92 1010.76 1010.68 1010.60 1010.56 1010.48 1010.44 1010.40 1010.40 1010.44 1010.48 1010.48 1010.48 1010.48 1010.48 1010.48
1018.16 1018.12 1018.04 1018.04 1017.92 1017.80 1017.68 1017.60 1017.48 1017.36 1017.24 1017.12 1016.96 1016.80 1016.64 1016.48 1016.32 1016.12 1015.96 1015.80 1015.64 1015.44 1015.24 1015.04 1014.88 1014.68 1014.52 1014.32 1014.16 1013.96 1013.80 1013.64 1013.48 1013.28 1013.12 1013.00 1012.84 1012.68 1012.48 1012.32 1012.20 1012.08 1011.96 1011.92 1011.80 1011.68 1011.56 1011.48 1011.32 1011.20 1011.12 1011.04 1010.92 1010.76 1010.60 1010.52 1010.44 1010.32 1010.28 1010.20 1010.20 1010.20 1010.20 1010.24 1010.24 1010.24 1010.24 1010.28 1010.28
1018.32 1018.28 1018.20 1018.12 1018.00 1017.92 1017.76 1017.64 1017.48 1017.36 1017.24 1017.12 1016.92 1016.80 1016.64 1016.48 1016.28 1016.08 1015.92 1015.72 1015.56 1015.40 1015.20 1015.04 1014.88 1014.68 1014.48 1014.32 1014.16 1013.96 1013.76 1013.56 1013.36 1013.20 1013.08 1012.92 1012.80 1012.64 1012.48 1012.28 1012.16 1012.04 1011.92 1011.88 1011.76 1011.64 1011.56 1011.44 1011.32 1011.20 1011.08 1010.96 1010.84 1010.68 1010.48 1010.32 1010.20 1010.12 1010.00 1009.92 1009.88 1009.92 1009.92 1009.96 1009.96 1010.00 1010.00 1010.00 1010.04
1018.48 1018.36 1018.28 1018.20 1018.04 1017.92 1017.76 1017.64 1017.48 1017.36 1017.20 1017.04 1016.92 1016.76 1016.56 1016.40 1016.20 1016.04 1015.84 1015.64 1015.48 1015.32 1015.12 1014.96 1014.80 1014.60 1014.44 1014.20 1014.08 1013.92 1013.72 1013.48 1013.32 1013.16 1013.04 1012.88 1012.76 1012.60 1012.40 1012.20 1012.04 1011.96 1011.92 1011.84 1011.72 1011.64 1011.48 1011.36 1011.28 1011.20 1011.04 1010.92 1010.76 1010.56 1010.36 1010.20 1010.04 1009.92 1009.76 1009.68 1009.64 1009.64 1009.64 1009.68 1009.68 1009.72 1009.72 1009.76 1009.80
1018.56 1018.48 1018.32 1018.20 1018.04 1017.92 1017.76 1017.64 1017.48 1017.32 1017.16 1017.00 1016.84 1016.64 1016.48 1016.32 1016.16 1016.00 1015.80 1015.60 1015.40 1015.20 1015.04 1014.84 1014.68 1014.48 1014.32 1014.16 1014.00 1013.84 1013.64 1013.48 1013.24 1013.04 1012.92 1012.76 1012.64 1012.48 1012.28 1012.08 1011.92 1011.76 1011.76 1011.72 1011.64 1011.52 1011.44 1011.32 1011.20 1011.04 1010.96 1010.88 1010.68 1010.48 1010.24 1010.04 1009.84 1009.64 1009.52 1009.48 1009.36 1009.32 1009.32 1009.36 1009.40 1009.44 1009.48 1009.48 1009.52
1018.60 1018.48 1018.32 1018.16 1018.04 1017.88 1017.76 1017.64 1017.44 1017.28 1017.12 1016.92 1016.76 1016.60 1016.44 1016.20 1016.04 1015.92 1015.72 1015.52 1015.32 1015.16 1014.92 1014.76 1014.60 1014.44 1014.24 1014.04 1013.92 1013.72 1013.56 1013.40 1013.20 1012.96 1012.76 1012.60 1012.52 1012.36 1012.16 1011.92 1011.68 1011.60 1011.52 1011.48 1011.48 1011.36 1011.28 1011.16 1011.04 1010.96 1010.92 1010.76 1010.56 1010.32 1010.12 1009.88 1009.64 1009.44 1009.28 1009.20 1009.04 1009.04 1009.04 1009.08 1009.08 1009.12 1009.16 1009.16 1009.20
1018.56 1018.44 1018.28 1018.16 1018.00 1017.84 1017.68 1017.52 1017.40 1017.24 1017.04 1016.88 1016.72 1016.52 1016.36 1016.20 1016.00 1015.84 1015.64 1015.52 1015.32 1015.12 1014.92 1014.68 1014.52 1014.32 1014.20 1014.04 1013.80 1013.60 1013.40 1013.24 1013.12 1012.92 1012.72 1012.52 1012.40 1012.24 1012.04 1011.76 1011.48 1011.32 1011.28 1011.20 1011.20 1011.08 1011.00 1010.92 1010.84 1010.76 1010.72 1010.60 1010.40 1010.20 1009.96 1009.72 1009.44 1009.20 1009.00 1008.88 1008.76 1008.68 1008.68 1008.76 1008.76 1008.76 1008.76 1008.76 1008.84
1018.48 1018.36 1018.24 1018.12 1017.96 1017.76 1017.64 1017.48 1017.32 1017.20 1017.00 1016.84 1016.64 1016.48 1016.28 1016.12 1015.96 1015.76 1015.60 1015.48 1015.32 1015.12 1014.92 1014.68 1014.48 1014.28 1014.08 1013.92 1013.72 1013.48 1013.24 1013.08 1013.00 1012.88 1012.68 1012.48 1012.24 1012.08 1011.92 1011.64 1011.28 1011.04 1010.92 1010.88 1010.80 1010.76 1010.64 1010.60 1010.52 1010.48 1010.48 1010.40 1010.24 1010.04 1009.84 1009.60 1009.28 1009.00 1008.80 1008.64 1008.48 1008.40 1008.36 1008.40 1008.40 1008.44 1008.40 1008.44 1008.48
1018.36 1018.24 1018.12 1018.00 1017.84 1017.68 1017.52 1017.36 1017.24 1017.08 1016.92 1016.76 1016.60 1016.40 1016.20 1016.04 1015.88 1015.68 1015.48 1015.32 1015.20 1015.04 1014.84 1014.64 1014.44 1014.20 1014.04 1013.88 1013.64 1013.40 1013.16 1012.96 1012.80 1012.72 1012.56 1012.32 1012.08 1011.88 1011.68 1011.44 1011.08 1010.84 1010.60 1010.52 1010.48 1010.36 1010.32 1010.24 1010.20 1010.16 1010.12 1010.12 1010.00 1009.84 1009.64 1009.44 1009.12 1008.84 1008.60 1008.48 1008.32 1008.20 1008.08 1008.04 1008.08 1008.12 1008.08 1008.12 1008.20
1018.20 1018.08 1017.96 1017.84 1017.72 1017.56 1017.40 1017.24 1017.08 1016.92 1016.80 1016.68 1016.48 1016.32 1016.16 1015.92 1015.76 1015.60 1015.40 1015.24 1015.04 1014.92 1014.76 1014.56 1014.36 1014.20 1014.00 1013.76 1013.60 1013.32 1013.04 1012.76 1012.60 1012.48 1012.32 1012.12 1011.88 1011.64 1011.44 1011.20 1010.88 1010.60 1010.36 1010.24 1010.16 1010.04 1009.96 1009.92 1009.84 1009.80 1009.76 1009.80 1009.72 1009.64 1009.48 1009.28 1009.00 1008.72 1008.44 1008.24 1008.16 1008.04 1007.92 1007.84 1007.84 1007.84 1007.84 1007.84 1007.92
Wind_Speed
1 1 1 2 2 2 2 2 2 2 1 1 1 1 1 1 1 1 1 1 1 2 1 1 1 1 1 2 2 2 3 3 3 3 4 4 4 5 5 4 5 5 5 5 4 4 4 4 4 4 3 4 4 4 4 3 4 5 5 5 5 5 6 7 7 8 9 9 7
2 2 2 2 2 1 1 1 1 2 2 2 2 2 2 2 2 2 2 2 2 2 2 1 1 1 2 2 2 3 3 4 4 4 4 4 5 5 5 5 5 5 6 6 5 4 4 4 4 4 3 3 4 4 4 3 4 4 5 6 5 5 5 6 7 8 8 8 7
4 4 3 3 3 2 2 2 2 3 3 3 3 3 3 3 3 3 3 3 3 2 2 1 1 2 2 3 3 3 3 4 4 4 4 4 5 5 5 5 6 6 6 6 6 5 5 4 4 4 3 3 4 4 3 3 3 4 5 6 4 4 4 5 5 6 6 6 6
2 2 3 3 3 3 3 2 3 4 4 4 3 3 3 3 2 2 2 2 2 2 2 2 2 2 3 3 3 3 3 3 4 4 5 5 5 5 5 6 6 6 7 7 7 6 6 5 4 4 4 4 4 4 4 3 4 4 4 4 3 3 3 3 4 4 4 4 5
3 2 2 1 1 1 0 1 1 2 2 2 2 2 2 2 2 2 1 1 1 2 2 3 3 3 3 3 4 4 4 4 3 4 4 5 5 5 5 5 6 6 6 7 7 7 6 6 4 4 4 4 4 4 4 4 4 4 4 3 3 3 3 2 2 2 2 3 3
4 4 4 4 5 4 3 3 3 3 2 2 2 2 2 1 1 0 1 1 1 2 2 3 3 3 3 3 4 4 4 4 4 4 4 5 5 5 5 6 6 6 6 6 6 7 6 6 4 4 4 4 4 4 4 5 5 4 4 3 3 3 3 3 2 2 2 2 2
4 4 4 4 4 4 4 3 3 3 3 2 3 3 3 3 3 3 2 2 2 2 2 2 2 3 3 4 4 4 5 5 5 5 5 5 5 5 5 6 6 6 6 6 6 6 6 6 5 4 4 4 4 5 5 5 5 5 5 4 3 3 3 3 3 3 3 4 4
3 4 4 4 4 4 4 4 4 3 3 2 2 2 3 3 3 3 3 3 3 3 2 2 3 3 3 3 4 4 5 5 5 5 5 5 5 5 5 6 6 7 7 6 6 6 6 5 4 4 4 4 4 4 5 6 6 6 5 5 4 3 3 3 4 4 4 6 6
3 3 4 4 4 4 4 4 4 4 4 3 3 3 3 3 3 3 3 2 2 2 2 3 3 4 4 4 4 4 4 4 5 5 5 5 5 5 5 5 6 6 6 6 6 6 6 5 4 4 4 4 4 4 5 7 7 7 6 5 4 4 4 4 5 5 6 6 7
4 4 4 4 4 5 4 4 4 4 4 4 4 4 4 4 3 3 2 2 2 2 2 3 3 4 5 5 5 5 4 4 4 4 4 4 5 5 5 5 5 6 6 5 5 6 6 5 5 5 5 4 5 6 6 7 7 7 7 5 5 5 6 5 6 6 7 7 7
4 4 4 3 4 4 4 4 4 4 4 4 4 5 5 5 4 4 3 3 3 3 3 3 3 4 4 5 5 5 5 5 4 4 4 4 5 5 6 5 6 6 6 5 5 5 5 5 5 6 6 5 5 6 6 7 7 8 7 6 6 7 7 7 7 7 7 7 8
3 3 3 3 3 3 3 3 3 4 4 5 5 6 6 6 6 6 6 5 5 5 4 4 4 4 4 4 5 5 5 5 5 5 5 5 5 5 5 6 6 6 6 6 5 5 5 5 6 6 6 6 5 5 6 7 7 8 8 7 7 8 8 9 8 8 7 8 9
3 3 3 3 4 4 4 4 4 4 4 5 6 6 6 6 6 7 7 7 6 6 5 5 4 4 5 5 5 5 5 5 6 6 6 6 5 5 5 5 5 6 6 6 5 5 5 6 7 7 7 7 6 6 6 7 7 8 8 8 8 8 9 9 9 8 8 8 9
5 5 5 5 5 5 5 5 5 5 5 6 6 6 5 5 6 6 6 6 6 6 5 5 5 5 5 6 6 6 6 6 6 6 6 6 6 6 6 6 6 5 5 5 5 6 6 7 7 8 8 8 7 7 7 7 7 8 9 9 9 10 10 10 9 9 9 10 10
6 6 6 6 6 6 6 6 5 5 5 6 6 6 5 5 5 5 5 5 6 5 5 5 5 5 6 6 7 7 7 7 6 6 6 6 6 6 6 7 7 6 6 6 5 6 6 7 8 8 8 8 8 8 8 8 8 9 9 9 10 10 10 10 9 9 10 10 10
7 7 7 7 7 6 6 6 5 5 5 5 6 6 5 5 5 5 5 6 5 5 5 5 5 5 6 6 7 7 7 7 7 7 7 7 6 6 6 7 7 7 7 7 7 6 6 7 7 8 8 9 9 8 8 8 8 9 9 10 10 10 10 10 9 9 10 10 10
7 7 7 7 7 7 6 6 5 5 5 6 6 6 5 5 5 5 5 5 5 5 6 6 5 5 5 6 6 6 6 7 7 7 7 7 7 7 7 7 7 7 7 7 8 8 7 7 7 7 8 8 8 8 8 8 8 9 9 10 10 10 10 9 9 9 9 10 10
8 8 8 8 8 8 7 7 6 6 6 6 6 6 5 5 5 5 5 5 5 6 6 7 6 5 5 6 5 5 5 6 7 7 7 7 8 8 7 7 7 7 7 7 8 8 9 8 8 7 7 8 8 8 8 8 8 8 9 9 9 9 9 9 9 8 9 9 9
7 8 8 8 8 8 8 8 7 7 6 6 6 6 6 6 6 6 6 6 6 6 7 7 7 6 6 6 6 5 5 5 6 7 8 8 8 8 8 8 8 8 7 7 8 8 9 9 9 8 8 7 7 8 8 8 8 8 8 8 8 8 8 8 8 7 7 8 8
7 8 8 8 8 8 8 8 7 7 6 6 7 7 7 7 7 7 7 7 7 7 7 7 7 7 7 7 7 6 5 5 6 7 8 8 8 8 8 9 8 8 8 8 8 8 9 9 9 9 8 8 8 8 8 8 8 8 8 8 8 8 8 7 7 7 7 7 7
7 7 7 7 7 7 7 7 7 6 7 7 7 7 8 8 7 7 8 8 8 8 8 8 8 8 8 7 7 7 6 5 6 7 8 8 8 8 8 8 8 8 8 8 8 8 8 9 9 9 9 9 9 9 9 8 8 8 8 7 7 8 8 8 7 7 7 7 7
6 6 6 7 7 7 7 7 7 7 7 7 7 7 7 8 8 8 8 8 8 8 8 8 8 8 8 8 8 8 7 6 7 7 8 8 8 8 8 8 8 8 8 8 8 8 8 8 9 9 9 9 9 9 9 9 9 9 8 8 8 8 8 8 8 8 8 8 8
5 5 5 6 6 7 7 7 7 7 7 7 7 7 8 8 8 8 8 8 7 7 7 7 7 8 8 8 8 8 8 8 8 8 8 8 9 9 9 8 8 8 8 7 7 7 7 7 8 8 8 8 9 9 9 9 9 9 9 9 9 8 8 8 8 8 8 8 8
6 6 6 5 6 7 7 7 7 7 7 7 7 7 7 8 8 8 8 8 8 8 8 7 7 8 9 9 8 8 9 9 9 9 9 9 9 9 9 8 8 8 8 7 7 7 7 6 6 7 7 7 8 8 9 9 9 9 9 9 9 9 9 8 8 8 8 8 8
6 6 6 6 7 7 7 7 7 7 7 7 7 7 7 7 7 8 8 8 8 8 8 8 8 8 8 8 8 8 8 8 9 9 9 10 9 9 9 8 8 7 7 7 8 9 10 9 7 6 6 6 6 7 7 8 9 9 10 10 10 9 9 9 9 9 9 9 9
7 7 7 7 7 7 7 7 7 7 7 7 8 7 7 7 7 7 8 8 8 8 8 8 8 8 8 8 8 8 8 7 8 8 9 9 9 9 9 8 8 7 7 8 9 11 12 12 11 9 8 7 6 6 6 7 8 9 10 10 10 10 10 10 10 10 10 10 10
7 7 7 7 7 7 8 8 7 8 8 8 8 8 8 8 8 8 8 9 9 9 9 8 8 8 8 7 8 8 8 7 7 8 8 9 9 10 9 8 8 7 8 9 11 12 13 13 13 13 11 9 7 7 7 6 7 8 9 10 10 10 10 10 10 10 10 10 10
7 7 7 8 8 8 8 8 8 8 9 9 9 9 9 9 9 9 9 10 10 9 9 8 7 7 6 6 7 8 9 8 8 8 8 9 9 10 9 9 8 8 9 12 13 14 14 14 15 15 14 11 9 8 8 8 8 8 8 9 9 10 10 10 10 10 9 10 10
8 8 8 8 9 9 9 9 9 9 10 10 10 10 10 10 10 11 11 11 11 10 8 7 7 6 6 7 8 9 9 10 9 9 9 9 10 10 10 9 9 9 11 13 15 16 16 16 16 16 16 16 11 9 8 9 8 8 8 8 8 9 9 9 9 9 9 9 9
8 8 8 9 9 9 9 10 10 10 10 10 10 11 11 11 11 11 11 11 11 10 8 8 7 7 8 9 9 9 9 9 9 9 9 10 10 10 10 10 9 10 12 14 16 17 17 17 17 17 17 17 14 11 10 9 9 9 9 8 8 9 9 9 10 10 9 9 9
8 8 9 9 9 10 10 10 10 10 10 10 10 11 11 11 11 11 10 10 9 9 9 8 9 10 10 10 9 9 9 9 9 9 9 10 11 11 10 10 10 11 12 15 17 17 18 18 18 17 17 17 15 12 10 10 10 10 9 9 9 10 10 9 10 10 10 10 10
8 8 9 9 9 9 9 9 9 10 10 10 10 10 10 10 10 9 9 8 9 9 9 9 10 11 11 10 9 9 9 10 10 10 9 10 10 10 10 10 10 11 13 15 17 18 18 19 19 19 18 17 15 13 12 11 11 11 11 11 12 11 11 10 10 11 12 12 11
8 8 9 9 9 9 9 9 9 9 10 10 10 10 10 10 9 9 9 8 8 8 9 9 10 10 10 10 9 9 10 10 10 10 10 10 10 10 10 10 10 11 13 15 17 18 19 19 19 19 19 18 16 14 13 12 11 11 11 12 12 12 12 12 11 12 12 12 12
8 8 9 9 10 10 10 10 10 10 10 10 10 10 10 9 10 9 9 8 7 7 8 8 9 9 9 9 9 10 10 11 10 10 10 10 10 11 11 10 9 10 13 16 18 19 20 20 20 20 20 19 15 13 12 13 12 12 12 12 12 12 12 12 12 13 12 13 12
8 9 9 9 10 10 11 11 10 10 10 10 10 10 10 9 9 9 9 9 8 8 8 8 8 8 8 9 9 9 10 12 11 11 11 11 11 12 12 12 11 13 15 18 19 20 21 21 21 21 20 18 14 12 11 12 13 13 13 14 14 13 13 13 13 13 13 13 12
8 9 9 10 10 10 10 11 11 11 11 11 11 11 10 9 9 8 8 9 9 8 8 8 8 8 8 9 9 9 10 11 12 12 12 12 12 12 13 14 14 15 17 19 21 22 22 22 22 22 20 17 13 11 11 11 11 12 13 14 14 14 14 14 13 13 13 12 12
8 8 9 10 10 10 10 10 11 11 11 11 10 10 10 10 9 8 8 8 8 9 9 9 9 9 9 9 9 9 10 11 12 13 13 13 13 13 15 16 16 17 18 20 21 22 23 23 23 22 19 15 12 11 11 11 10 11 12 14 14 14 14 13 13 13 13 13 13
7 8 8 9 10 10 10 10 10 10 10 10 9 8 8 8 8 8 8 7 8 8 9 9 9 10 10 10 11 12 12 12 13 14 14 14 14 15 16 17 17 17 18 20 21 23 23 23 23 22 19 14 13 12 11 10 11 11 11 12 13 13 13 12 11 12 13 14 14
7 7 8 8 9 9 9 9 9 9 9 9 9 9 9 8 7 7 7 7 7 8 9 10 11 11 11 12 13 13 14 13 14 14 15 15 15 16 17 18 18 18 18 20 22 23 23 23 23 22 20 15 13 11 11 10 11 12 12 11 11 12 12 11 11 10 11 13 15
7 7 7 8 8 8 8 8 8 8 8 8 9 9 9 8 7 8 8 8 8 9 10 11 12 12 12 13 14 15 15 15 14 15 15 16 17 18 19 19 18 18 19 20 21 23 23 23 23 22 20 15 12 10 10 10 11 12 12 11 10 10 10 10 10 10 10 11 14
6 7 7 7 7 8 8 8 9 8 7 7 8 8 8 8 8 8 9 9 10 10 10 11 12 13 14 14 14 15 15 16 16 16 16 17 18 18 19 18 19 19 19 20 21 22 23 24 24 23 21 15 11 10 9 10 11 12 12 12 11 10 9 9 8 9 9 10 10
Wind_Direction
209 212 203 197 201 208 214 214 217 223 229 230 227 221 216 208 222 231 237 237 246 251 256 255 251 256 268 280 284 285 281 274 266 259 254 253 256 258 259 261 259 258 256 255 251 247 240 231 229 229 230 227 228 227 222 210 205 206 207 205 204 197 191 188 187 185 182 181 180
215 219 215 204 204 211 219 215 215 219 225 227 223 216 208 202 203 206 208 210 213 217 225 238 246 265 283 290 293 293 291 287 279 272 264 259 257 255 254 253 249 247 246 246 244 242 238 231 229 230 232 230 229 228 223 208 202 206 211 212 210 204 197 195 194 192 189 187 183
198 198 197 194 196 200 208 214 215 218 222 227 223 215 208 203 202 204 206 207 206 207 214 230 247 261 271 277 278 279 280 281 281 277 271 263 256 251 247 245 242 240 238 237 236 235 233 228 227 228 230 229 226 225 222 207 198 204 212 216 215 211 206 203 199 195 193 191 185
176 179 183 188 191 196 201 207 212 217 221 225 223 219 214 209 208 208 209 211 211 217 227 240 255 261 266 270 273 274 276 278 280 278 275 271 261 252 245 241 239 237 234 232 231 230 228 223 223 224 226 225 225 225 220 205 196 201 209 215 216 216 215 211 202 196 193 190 184
31 30 27 17 13 2 298 274 254 247 243 240 233 227 220 212 209 208 212 218 226 229 231 235 245 254 260 266 271 274 276 276 273 272 273 272 266 260 252 245 241 238 234 230 228 225 223 218 220 221 223 222 223 222 216 202 198 200 204 207 209 212 212 209 201 194 188 184 179
21 19 18 16 15 12 7 358 348 338 331 334 338 338 335 336 338 321 280 255 249 243 238 234 239 247 255 260 265 267 268 266 261 258 258 260 261 260 258 255 248 242 237 231 227 224 221 216 220 222 222 222 223 220 211 198 198 199 200 198 196 194 193 192 187 182 176 175 177
27 24 20 17 15 11 6 357 349 345 343 347 347 343 338 336 337 332 324 315 311 305 293 276 263 256 252 248 249 250 250 250 247 245 245 249 252 254 256 257 254 248 242 233 228 225 223 220 223 224 222 218 220 214 207 197 197 197 198 197 191 184 181 183 177 172 174 180 185
33 29 24 19 14 9 3 356 350 347 345 344 339 331 327 326 326 323 321 321 318 315 310 307 296 284 271 256 249 245 244 243 241 239 237 238 242 245 250 255 258 255 249 239 233 229 228 227 229 228 224 217 215 209 202 195 195 196 198 198 193 186 182 181 178 177 180 184 189
36 29 23 18 13 7 1 355 351 348 345 341 336 332 329 329 325 321 317 312 305 305 305 304 301 299 296 289 277 267 259 252 250 245 239 233 234 237 242 248 255 257 254 246 239 234 233 234 234 232 226 217 213 206 200 194 194 196 198 198 195 192 189 186 184 184 185 188 192
35 27 21 16 8 1 355 350 347 345 344 341 338 338 339 339 335 327 315 302 304 306 306 300 302 305 305 304 299 294 286 277 268 260 250 240 235 235 236 239 245 249 251 247 242 238 237 238 238 236 231 222 215 209 204 198 197 198 200 200 197 194 194 194 191 190 190 192 196
36 30 23 14 2 355 351 349 346 346 348 350 349 350 350 350 347 341 334 332 331 323 314 308 309 309 307 306 304 301 298 293 285 275 263 251 242 237 236 235 236 237 238 237 236 237 238 239 240 238 235 228 219 214 211 207 205 204 205 206 200 198 198 198 196 195 194 195 197
39 32 24 12 0 356 356 356 353 355 359 2 0 359 358 357 353 349 347 347 342 334 326 322 319 313 307 301 298 297 296 295 291 286 278 268 257 247 241 237 235 233 231 229 226 228 233 237 239 238 236 232 225 221 218 216 213 213 213 213 208 205 204 204 201 200 200 198 199
36 29 20 10 6 6 6 5 2 3 6 7 5 4 1 356 352 350 349 347 342 337 332 329 324 317 309 301 297 294 292 291 290 289 287 283 277 270 261 252 244 238 234 230 224 222 226 232 235 237 236 233 230 227 223 220 218 219 219 219 217 215 214 212 207 205 204 204 205
28 24 18 12 11 10 10 7 5 6 7 7 5 2 358 353 349 347 346 343 339 335 331 329 325 320 315 311 307 303 299 295 292 289 286 284 282 280 277 271 263 255 246 239 229 224 224 228 231 233 235 235 234 232 228 224 223 223 223 224 223 222 221 219 213 209 207 208 211
21 19 16 14 13 12 11 7 4 3 3 2 360 357 354 349 344 343 341 338 333 330 327 325 322 319 317 317 316 314 311 307 301 295 289 284 280 278 276 275 272 268 263 257 244 232 226 227 230 232 235 237 238 237 234 230 229 228 229 229 228 228 227 225 218 213 211 211 213
15 14 13 12 11 10 8 5 1 359 357 355 353 351 348 343 340 338 336 332 328 324 321 318 316 315 316 316 316 315 314 312 308 303 298 292 286 280 275 272 271 269 267 266 261 250 237 229 230 233 236 239 241 241 239 236 234 233 233 233 233 233 232 229 224 220 217 215 216
9 9 8 8 6 4 1 358 355 353 350 347 346 344 341 338 336 333 329 325 321 318 315 312 311 310 310 309 310 310 310 309 307 305 301 298 293 288 283 277 271 267 265 263 263 259 252 242 236 235 236 239 242 244 244 242 240 238 237 236 236 235 234 231 228 225 223 221 221
5 4 4 3 360 357 353 350 349 346 344 342 339 337 334 332 330 326 322 320 318 315 313 310 308 307 305 304 303 303 303 303 301 300 298 296 294 292 289 284 279 273 267 261 259 257 255 251 245 239 237 239 242 245 247 247 246 244 242 239 238 237 236 234 230 228 225 224 224
2 2 0 357 353 349 346 344 343 342 340 337 334 332 329 327 325 323 321 319 317 316 314 312 311 308 305 302 302 301 300 299 297 296 294 293 292 290 288 286 284 280 275 267 260 256 254 252 248 244 240 238 241 243 245 247 247 246 245 243 241 239 238 236 233 230 227 224 225
360 359 356 352 347 343 340 339 339 337 336 334 332 329 327 325 325 324 322 319 319 319 317 315 313 311 309 307 306 305 303 300 298 296 294 292 290 287 285 283 282 281 278 274 267 261 256 252 248 244 241 238 238 240 242 244 246 245 244 243 241 239 237 236 233 230 227 223 221
357 355 351 346 341 338 336 335 335 335 334 332 331 329 328 328 327 325 323 320 321 321 320 317 315 314 313 312 311 309 306 303 300 297 294 293 290 286 284 282 280 279 278 276 273 268 262 256 249 244 240 237 236 236 237 239 241 242 241 240 238 236 234 233 231 228 225 221 218
351 348 344 340 336 334 333 333 334 334 334 333 333 332 331 330 328 326 324 323 323 322 320 318 316 314 313 312 310 309 307 304 301 298 295 294 291 289 287 284 282 280 278 276 276 274 270 264 255 248 242 237 234 232 233 234 236 237 237 236 235 234 232 230 229 227 224 220 217
345 342 339 335 332 332 332 333 334 334 334 333 333 332 331 328 326 324 324 323 323 321 319 317 314 312 310 308 306 305 304 303 301 299 297 295 294 293 291 288 283 279 276 274 274 274 273 270 263 256 248 242 236 232 230 229 231 232 232 232 232 231 230 229 227 225 223 221 218
339 337 335 333 332 333 333 334 334 334 332 331 330 328 326 324 322 321 320 320 318 317 316 314 312 309 307 304 302 301 300 300 300 299 299 298 297 296 294 292 286 279 274 271 268 266 265 266 265 261 256 250 242 236 231 228 228 228 229 230 230 230 230 228 225 223 223 222 220
336 334 333 333 334 334 334 335 334 332 329 327 325 324 322 320 319 317 316 315 314 313 311 309 307 306 304 301 299 297 295 295 296 297 297 298 297 297 296 295 290 285 279 273 265 261 259 258 258 259 259 256 251 245 239 232 230 229 229 229 230 230 230 228 226 224 223 222 221
336 335 334 334 335 335 334 333 331 328 326 324 324 322 320 317 316 315 314 313 311 310 309 307 305 303 301 298 296 294 293 292 292 292 293 294 295 295 294 293 292 289 285 279 271 265 260 257 256 256 257 257 255 251 247 240 234 233 233 233 232 231 231 231 228 226 224 223 221
337 336 335 336 337 336 334 331 330 328 326 325 323 321 319 317 317 316 314 312 311 309 308 306 304 302 300 298 296 294 292 290 289 288 289 290 291 292 291 290 289 289 287 285 281 275 268 262 259 256 255 256 254 251 248 245 240 238 237 237 236 234 234 234 232 230 227 225 222
339 338 338 339 338 336 334 333 332 330 328 326 324 322 321 320 319 317 316 313 312 311 310 307 304 303 302 300 297 294 292 291 290 289 289 288 289 289 289 289 289 288 288 289 289 286 280 272 265 260 257 254 254 252 250 249 246 244 242 241 240 239 237 237 236 234 231 228 224
339 340 341 341 338 336 335 335 333 330 328 327 325 324 324 323 320 318 316 314 313 311 309 307 306 305 302 300 297 295 293 292 291 290 290 290 289 289 288 288 288 289 290 292 293 292 289 282 274 267 261 256 255 253 252 251 250 249 246 245 242 240 239 238 238 237 234 230 226
342 342 342 340 337 335 334 332 330 329 327 326 325 324 322 320 318 316 314 311 309 307 304 302 302 300 298 296 296 295 294 292 291 290 289 289 288 287 287 288 289 291 292 295 296 296 294 291 284 276 268 260 257 256 254 252 251 251 250 248 245 242 240 239 238 236 234 231 227
343 343 341 337 334 331 329 327 325 324 323 321 320 318 316 313 311 310 308 306 303 301 300 299 298 296 295 294 295 294 293 293 292 291 289 287 287 286 287 288 289 290 292 294 295 295 295 295 292 286 277 267 262 258 255 253 251 250 249 248 245 242 239 238 236 234 232 230 227
342 340 337 332 328 324 321 320 318 317 316 314 312 310 308 306 303 302 301 301 301 301 302 301 300 299 298 297 297 296 295 295 294 293 290 288 288 288 288 289 289 290 291 292 293 293 294 295 294 291 285 275 268 262 257 253 251 250 249 248 246 242 238 236 236 234 231 229 227
338 334 330 325 320 317 315 314 313 312 310 308 306 305 303 301 300 300 300 301 301 301 302 301 301 300 299 299 298 297 296 295 294 294 293 292 292 292 292 292 290 291 292 293 294 294 295 295 295 294 291 284 275 267 259 253 250 249 247 247 245 242 239 236 235 233 231 229 227
331 327 323 319 316 314 313 312 311 309 307 305 303 302 301 301 302 302 302 302 301 299 298 297 297 297 296 297 297 297 297 296 296 296 296 296 296 296 295 293 292 293 294 295 295 295 295 295 295 295 293 290 283 273 262 254 251 248 247 246 244 242 239 236 234 233 232 230 228
326 321 318 315 313 312 312 312 310 308 306 305 303 302 302 301 301 301 301 301 300 299 297 296 295 295 295 296 296 296 296 297 297 297 297 297 297 296 295 293 292 293 294 295 295 295 294 294 294 294 294 293 289 279 268 258 253 249 247 246 245 243 240 237 235 234 232 230 228
319 315 312 311 311 311 311 310 309 308 307 305 304 304 303 302 301 301 301 302 302 301 300 299 299 298 298 297 297 296 295 296 296 297 296 296 296 295 293 292 291 292 293 294 294 293 293 292 292 292 292 292 288 282 273 264 256 251 247 246 245 243 241 239 237 234 232 229 227
310 308 307 308 308 308 308 307 306 306 305 304 303 303 303 304 303 303 303 305 305 304 303 302 301 300 299 298 297 296 294 294 296 296 296 296 295 293 292 291 290 290 290 291 290 290 289 289 288 288 289 288 285 282 277 269 261 253 248 246 245 243 241 240 237 235 232 229 226
299 299 300 302 303 303 303 303 302 302 302 302 302 302 303 304 305 305 305 306 305 304 303 303 302 301 300 300 299 297 296 295 296 296 296 295 294 292 291 290 289 288 288 287 287 287 286 286 285 285 284 282 281 280 278 273 266 258 252 247 246 243 241 239 237 235 232 228 224
290 291 292 294 296 297 297 298 298 298 299 301 303 304 306 306 305 304 304 304 302 302 302 303 302 302 302 303 302 301 299 297 296 296 295 294 292 291 290 288 287 286 285 285 284 284 284 283 283 282 280 278 277 276 276 274 270 264 258 252 249 245 242 239 236 235 232 228 223
286 287 288 288 290 292 294 296 298 298 300 303 305 306 306 305 303 303 303 303 303 302 302 302 302 302 302 303 302 300 298 296 295 293 292 291 290 289 288 286 286 285 285 284 284 283 283 283 282 281 279 275 273 272 272 273 272 268 263 257 253 249 245 240 235 233 231 228 223
288 288 288 287 289 293 297 300 302 302 303 303 304 304 304 304 303 304 305 305 304 303 302 301 300 300 300 300 299 298 296 294 293 292 291 290 289 288 287 286 286 286 285 285 284 284 283 283 282 280 278 274 270 268 269 270 270 268 266 262 258 254 249 243 237 232 229 227 224